Location: Unspecified
(33.4054°N, 0.0000°E)
Time: 14:10:04
(UTC+00:00)

TIGRISAT - Visible Passes

Search period start: 04 April 2026 00:00
Search period end: 14 April 2026 00:00
Orbit: 580 x 648 km, 97.8° (Epoch: 28 March)

Date Brightness Start Highest point End Pass type
(mag) Time Alt. Az. Time Alt. Az. Time Alt. Az.
4 Apr ? 03:21:37 12° NNW 03:21:37 12° NNW 03:21:56 10° NNW visible
5 Apr ? 03:37:00 11° NNW 03:37:00 11° NNW 03:37:14 10° NNW visible
6 Apr ? 02:15:20 11° NNE 02:15:20 11° NNE 02:15:37 10° NNE visible
6 Apr ? 03:52:21 10° NNW 03:52:21 10° NNW 03:52:22 10° NNW visible
7 Apr ? 02:30:42 15° NNE 02:30:42 15° NNE 02:31:38 10° NNE visible
8 Apr ? 02:46:04 18° NNE 02:46:04 18° NNE 02:47:24 10° N visible
9 Apr ? 03:01:25 21° N 03:01:25 21° N 03:03:00 10° N visible
10 Apr ? 03:16:47 23° NNW 03:16:47 23° NNW 03:18:27 10° NNW visible
11 Apr ? 03:32:08 22° NNW 03:32:08 22° NNW 03:33:46 10° NNW visible
12 Apr ? 02:10:28 15° NE 02:10:28 15° NE 02:11:55 10° NNE visible
12 Apr ? 03:47:29 19° NW 03:47:29 19° NW 03:48:55 10° NNW visible
13 Apr ? 02:25:49 20° NE 02:25:49 20° NE 02:28:00 10° NNE visible
13 Apr ? 04:02:50 15° NW 04:02:50 15° NW 04:03:52 10° NW visible
